Regional Weather Roundup
Issued by NWS Albany, NY

Home | Current Version | Previous Version | Text Only | Print | Product List | Glossary On
Versions: 1 2 3 4 5 6 7 8 9 10 11 12 13 14 15 16 17 18 19 20 21 22 23 24 25 26
000
ASUS41 KALY 260610
RWRALY

NEW YORK STATE HOURLY WEATHER ROUNDUP
NATIONAL WEATHER SERVICE ALBANY NY
200 AM EDT WED APR 26 2017

NOTE: "FAIR" INDICATES FEW OR NO CLOUDS BELOW 12,000 FEET WITH NO
SIGNIFICANT WEATHER AND/OR NO OBSTRUCTIONS TO VISIBILITY.

NYZ032-033-038>043-046>054-057>066-NYZ062>081-082-084-260700-
EAST


CITY           SKY/WX    TMP DP  RH WIND       PRES   REMARKS
ALBANY         LGT RAIN  50  48  93 N8        29.94F
GLENS FALLS    LGT RAIN  49  46  90 N7        29.96F
POUGHKEEPSIE   CLOUDY    50  49  96 N7        29.85F FOG
MONTGOMERY     LGT RAIN  51  49  92 NE12      29.84F
WHITE PLAINS   CLOUDY    54  52  93 NE10G22   29.79F
ISLIP          CLOUDY    59  58  96 E16G24    29.79S
NEW YORK CITY  CLOUDY    53  51  93 NE21      29.80S FOG
CENTRAL PARK   CLOUDY    54  53  97 NE8G23    29.83F
$$

NYZ005>009-017-018-044>046-055-056-260700-
CENTRAL


CITY           SKY/WX    TMP DP  RH WIND       PRES   REMARKS
FULTON         CLOUDY    53  47  79 SE8       29.86F
SYRACUSE       CLOUDY    50  49  96 E12       29.85F
ROME           CLOUDY    51  49  92 SE10      29.90F
ELMIRA         CLOUDY    56  51  84 E3        29.83F
BINGHAMTON     CLOUDY    49  48  97 E7        29.84F
MONTICELLO     CLOUDY    48  46  93 E12G17    29.86F
$$

NYZ026>034-041>043-087-260700-
NORTH


CITY           SKY/WX    TMP DP  RH WIND       PRES   REMARKS
WATERTOWN      CLOUDY    53  50  89 NE8       29.88F
FORT DRUM      NOT AVBL
OGDENSBURG     CLOUDY    48  47  97 NE5       29.92F FOG
MASSENA        LGT RAIN  49  48  97 N7        29.95F
SARANAC LAKE   CLOUDY    49  48  97 E9        29.92F
PLATTSBURGH    PTCLDY    46  45  96 CALM      29.99F FOG
$$

NYZ001>004-010>016-019>021-085-260700-
WEST


CITY           SKY/WX    TMP DP  RH WIND       PRES   REMARKS
NIAGARA FALLS  CLOUDY    58  52  80 E6        29.81F
BUFFALO        CLOUDY    57  52  83 NE5       29.82S
DUNKIRK        CLOUDY    57  52  83 NE6       29.81R
JAMESTOWN      CLOUDY    55  48  76 S5        29.81S
WELLSVILLE     CLOUDY    52  50  93 SE7       29.83F
ROCHESTER      CLOUDY    55  49  80 E7        29.84F
PENN YAN       CLOUDY    55  50  83 E5        29.84F
$$

             KEY
       WCI = WIND CHILL INDEX
       VSB = VISIBILITY
       HX  = HEAT INDEX
$$




USA.gov is the U.S. government's official web portal to all federal, state and local government web resources and services.